Location: Bougoudala
(13.2282°N, 4.9477°W)
Time: 00:59:27
(UTC+00:00)

CZ-4 R/B - Pass Details

Date: 29 January 2020
Orbit: 534 x 597 km, 97.7° (Epoch: 20 February)

Event Time Altitude Azimuth Distance (km) Brightness Sun altitude
Rises 18:54:18 0° 164° (SSE) 2,730 4.9 -9.0°
Reaches altitude 10° 18:56:24 10° 162° (SSE) 1,846 4.0 -9.5°
Maximum altitude 19:00:23 72° 78° (ENE) 601 1.3 -10.4°
Drops below altitude 10° 19:04:28 10° 354° (N) 1,885 3.9 -11.4°
Sets 19:06:38 0° 352° (N) 2,794 4.8 -11.9°
